• In Moldova, Republic
  • List of Countries
  • For 7 days
  • Water Temperature
  • Satellite Maps
  • Weather Map
  • Weather Widgets
  • user-avatar
    Login

    Hourly Weather Eisenstadt

    Today, 21 June, Thursday

    Time Temperature Precipitation Wind Pressure Humidity
    00:00 +20°C° 0 mm 1 mps 724 mmHg 74%
    01:00 +19°C° 0 mm 2 mps 724 mmHg 75%
    02:00 +18°C° 0 mm 2 mps 724 mmHg 77%
    03:00 +18°C° 0 mm 2 mps 724 mmHg 78%
    04:00 +19°C° 0 mm 1 mps 723 mmHg 80%
    05:00 +20°C° 0 mm 1 mps 723 mmHg 76%
    06:00 +22°C° 0 mm 1 mps 723 mmHg 72%
    07:00 +24°C° 0 mm 1 mps 723 mmHg 68%
    08:00 +25°C° 0 mm 2 mps 723 mmHg 63%
    09:00 +27°C° 0 mm 2 mps 723 mmHg 58%
    10:00 +29°C° 0 mm 2 mps 723 mmHg 53%
    11:00 +29°C° 0.1 mm 3 mps 722 mmHg 51%
    12:00 +30°C° 0.1 mm 3 mps 722 mmHg 50%
    13:00 +31°C° 0.1 mm 3 mps 721 mmHg 49%
    14:00 +31°C° 0.3 mm 3 mps 721 mmHg 50%
    15:00 +30°C° 0.3 mm 3 mps 720 mmHg 50%
    16:00 +30°C° 0.3 mm 3 mps 720 mmHg 51%
    17:00 +29°C° 0.5 mm 3 mps 720 mmHg 58%
    18:00 +27°C° 0.5 mm 3 mps 719 mmHg 64%
    19:00 +26°C° 0.5 mm 3 mps 719 mmHg 71%
    20:00 +24°C° 0.5 mm 3 mps 720 mmHg 72%
    21:00 +22°C° 0.5 mm 4 mps 720 mmHg 73%
    22:00 +21°C° 0.5 mm 5 mps 721 mmHg 74%
    23:00 +19°C° 0.6 mm 5 mps 721 mmHg 77%

    Tomorrow, 22 June, Friday

    Time Temperature Precipitation Wind Pressure Humidity
    00:00 +16°C° 0.6 mm 5 mps 722 mmHg 80%
    01:00 +14°C° 0.6 mm 6 mps 722 mmHg 83%
    02:00 +13°C° 0.4 mm 5 mps 722 mmHg 81%
    03:00 +12°C° 0.4 mm 5 mps 723 mmHg 79%
    04:00 +10°C° 0.4 mm 5 mps 723 mmHg 78%
    05:00 +10°C° 0.2 mm 5 mps 723 mmHg 78%
    06:00 +10°C° 0.2 mm 5 mps 724 mmHg 78%
    07:00 +10°C° 0.2 mm 5 mps 724 mmHg 78%
    08:00 +11°C° 0.3 mm 4 mps 725 mmHg 75%
    09:00 +12°C° 0.3 mm 4 mps 725 mmHg 72%
    10:00 +12°C° 0.3 mm 4 mps 726 mmHg 69%
    11:00 +13°C° 0 mm 3 mps 726 mmHg 65%
    12:00 +14°C° 0 mm 3 mps 726 mmHg 60%
    13:00 +16°C° 0 mm 3 mps 726 mmHg 56%
    14:00 +15°C° 0 mm 4 mps 726 mmHg 56%
    15:00 +15°C° 0 mm 4 mps 725 mmHg 56%
    16:00 +15°C° 0 mm 5 mps 725 mmHg 56%
    17:00 +15°C° 0.1 mm 4 mps 725 mmHg 60%
    18:00 +14°C° 0.1 mm 3 mps 725 mmHg 63%
    19:00 +13°C° 0.1 mm 3 mps 725 mmHg 67%
    20:00 +12°C° 0 mm 3 mps 726 mmHg 70%
    21:00 +12°C° 0 mm 2 mps 726 mmHg 73%
    22:00 +9°C° 0 mm 2 mps 726 mmHg 77%
    23:00 +9°C° 0 mm 2 mps 726 mmHg 78%

    Day after tomorrow, 23 June, Saturday

    Time Temperature Precipitation Wind Pressure Humidity
    00:00 +9°C° 0 mm 2 mps 726 mmHg 79%
    01:00 +8°C° 0 mm 2 mps 726 mmHg 81%
    02:00 +8°C° 0 mm 2 mps 726 mmHg 82%
    03:00 +8°C° 0 mm 2 mps 726 mmHg 83%
    04:00 +8°C° 0 mm 2 mps 726 mmHg 83%
    05:00 +10°C° 0 mm 3 mps 726 mmHg 78%
    06:00 +11°C° 0 mm 3 mps 726 mmHg 72%
    07:00 +13°C° 0 mm 4 mps 726 mmHg 66%
    08:00 +14°C° 0 mm 4 mps 726 mmHg 61%
    09:00 +15°C° 0 mm 4 mps 726 mmHg 57%
    10:00 +17°C° 0 mm 4 mps 726 mmHg 52%
    11:00 +18°C° 0 mm 4 mps 726 mmHg 50%
    12:00 +19°C° 0 mm 4 mps 726 mmHg 47%
    13:00 +19°C° 0 mm 4 mps 726 mmHg 45%
    14:00 +20°C° 0 mm 4 mps 725 mmHg 45%
    15:00 +20°C° 0 mm 4 mps 725 mmHg 46%
    16:00 +20°C° 0 mm 4 mps 725 mmHg 46%
    17:00 +18°C° 0 mm 3 mps 725 mmHg 53%
    18:00 +17°C° 0 mm 3 mps 725 mmHg 59%
    19:00 +16°C° 0 mm 2 mps 725 mmHg 65%
    20:00 +15°C° 0.1 mm 2 mps 725 mmHg 68%
    21:00 +14°C° 0.1 mm 2 mps 725 mmHg 72%
    22:00 +13°C° 0.1 mm 2 mps 725 mmHg 75%
    23:00 +12°C° 0.1 mm 2 mps 725 mmHg 77%

    24 June, Sunday

    Time Temperature Precipitation Wind Pressure Humidity
    00:00 +12°C° 0.1 mm 2 mps 725 mmHg 79%
    01:00 +12°C° 0.1 mm 2 mps 725 mmHg 81%
    02:00 +12°C° 0.1 mm 2 mps 725 mmHg 82%
    03:00 +11°C° 0.1 mm 1 mps 725 mmHg 83%
    04:00 +11°C° 0.1 mm 1 mps 725 mmHg 84%
    05:00 +12°C° 0 mm 2 mps 725 mmHg 81%
    06:00 +13°C° 0 mm 2 mps 725 mmHg 78%
    07:00 +14°C° 0 mm 2 mps 725 mmHg 75%
    08:00 +15°C° 0.1 mm 2 mps 725 mmHg 72%
    09:00 +16°C° 0.1 mm 2 mps 725 mmHg 68%
    10:00 +17°C° 0.1 mm 2 mps 725 mmHg 65%
    11:00 +17°C° 0.2 mm 2 mps 725 mmHg 64%
    12:00 +17°C° 0.2 mm 2 mps 725 mmHg 63%
    13:00 +18°C° 0.2 mm 2 mps 725 mmHg 63%
    14:00 +18°C° 0.2 mm 2 mps 725 mmHg 63%
    15:00 +18°C° 0.2 mm 2 mps 724 mmHg 64%
    16:00 +18°C° 0.2 mm 2 mps 724 mmHg 65%
    17:00 +17°C° 0.2 mm 2 mps 724 mmHg 69%
    18:00 +16°C° 0.2 mm 1 mps 724 mmHg 74%
    19:00 +15°C° 0.2 mm 1 mps 724 mmHg 79%
    20:00 +14°C° 0.1 mm 1 mps 724 mmHg 81%
    21:00 +13°C° 0.1 mm 1 mps 725 mmHg 83%
    22:00 +12°C° 0.1 mm 1 mps 725 mmHg 85%
    23:00 +12°C° 0.1 mm 1 mps 725 mmHg 86%

    25 June, Monday

    Time Temperature Precipitation Wind Pressure Humidity
    00:00 +12°C° 0.1 mm 1 mps 725 mmHg 86%
    01:00 +12°C° 0.1 mm 1 mps 725 mmHg 87%
    02:00 +11°C° 0 mm 1 mps 725 mmHg 88%
    03:00 +11°C° 0 mm 1 mps 724 mmHg 89%
    04:00 +9°C° 0 mm 2 mps 724 mmHg 90%
    05:00 +12°C° 0 mm 2 mps 725 mmHg 86%
    06:00 +13°C° 0 mm 2 mps 725 mmHg 81%
    07:00 +15°C° 0 mm 2 mps 725 mmHg 77%
    08:00 +16°C° 0 mm 3 mps 725 mmHg 70%
    09:00 +17°C° 0 mm 3 mps 725 mmHg 63%
    10:00 +19°C° 0 mm 3 mps 725 mmHg 56%
    11:00 +20°C° 0.1 mm 3 mps 725 mmHg 53%
    12:00 +20°C° 0.1 mm 3 mps 725 mmHg 50%
    13:00 +21°C° 0.1 mm 3 mps 725 mmHg 48%
    14:00 +21°C° 0 mm 3 mps 725 mmHg 48%
    15:00 +21°C° 0 mm 3 mps 724 mmHg 49%
    16:00 +21°C° 0 mm 3 mps 724 mmHg 49%
    17:00 +20°C° 0.1 mm 3 mps 724 mmHg 57%
    18:00 +19°C° 0.1 mm 2 mps 724 mmHg 65%
    19:00 +17°C° 0.1 mm 2 mps 724 mmHg 72%
    20:00 +16°C° 0 mm 2 mps 724 mmHg 76%
    21:00 +15°C° 0 mm 2 mps 725 mmHg 79%
    22:00 +13°C° 0 mm 2 mps 725 mmHg 83%
    23:00 +13°C° 0 mm 2 mps 725 mmHg 85%

    26 June, Tuesday

    Time Temperature Precipitation Wind Pressure Humidity
    00:00 +13°C° 0 mm 2 mps 725 mmHg 86%
    01:00 +12°C° 0 mm 2 mps 725 mmHg 88%
    02:00 +12°C° 0 mm 2 mps 725 mmHg 89%
    03:00 +11°C° 0 mm 3 mps 724 mmHg 89%
    04:00 +11°C° 0 mm 3 mps 724 mmHg 90%
    05:00 +12°C° 0 mm 3 mps 725 mmHg 85%
    06:00 +14°C° 0 mm 4 mps 725 mmHg 79%
    07:00 +15°C° 0 mm 4 mps 725 mmHg 73%
    08:00 +18°C° 0 mm 4 mps 725 mmHg 67%
    09:00 +19°C° 0 mm 4 mps 725 mmHg 60%
    10:00 +21°C° 0 mm 5 mps 725 mmHg 53%
    11:00 +22°C° 0 mm 5 mps 725 mmHg 50%
    12:00 +22°C° 0 mm 5 mps 725 mmHg 48%
    13:00 +23°C° 0 mm 5 mps 725 mmHg 45%
    14:00 +23°C° 0 mm 5 mps 725 mmHg 45%
    15:00 +23°C° 0 mm 5 mps 725 mmHg 46%
    16:00 +23°C° 0 mm 5 mps 724 mmHg 47%
    17:00 +22°C° 0 mm 4 mps 724 mmHg 52%
    18:00 +20°C° 0 mm 4 mps 724 mmHg 57%
    19:00 +19°C° 0 mm 3 mps 724 mmHg 63%
    20:00 +18°C° 0 mm 3 mps 725 mmHg 65%
    21:00 +17°C° 0 mm 4 mps 725 mmHg 67%
    22:00 +15°C° 0 mm 4 mps 725 mmHg 69%
    23:00 +14°C° 0 mm 4 mps 725 mmHg 72%
    Show more